Regional Weather Roundup
Issued by NWS

Home | Current Version | Previous Version | Graphics & Text | Print | Product List | Glossary On
Versions: 1 2 3 4 5 6 7 8 9 10 11 12 13 14 15 16 17 18 19 20 21 22 23 24 25 26 27 28 29 30 31 32 33 34 35 36 37 38 39 40 41 42 43 44 45 46 47 48 49 50
000
ASUS43 KMKX 030910
RWRWI

WISCONSIN REGIONAL WEATHER ROUNDUP
NATIONAL WEATHER SERVICE MILWAUKEE/SULLIVAN WI
300 AM CST TUE MAR 03 2015

NOTE: "FAIR" INDICATES FEW OR NO CLOUDS BELOW 12,000 FEET WITH NO
SIGNIFICANT WEATHER AND/OR OBSTRUCTIONS TO VISIBILITY.

WIZ001-002-006>008-014>016-023>028-031000-
NORTHWEST WISCONSIN

CITY           SKY/WX    TMP DP  RH WIND       PRES   REMARKS
SUPERIOR ARPT  CLOUDY    23   9  55 SW10      29.89F WCI  12
ASHLAND        CLOUDY    23   6  48 S9        29.92F WCI  13
HAYWARD        FLURRIES  20  12  71 S10       29.92F WCI   9
SIREN          FLURRIES  20  15  82 SE9       29.90F WCI   9
CUMBERLAND     CLOUDY    19  16  86 SE6       29.90F WCI  11
RICE LAKE      CLOUDY    19  16  88 SE7       29.93F WCI  10
CHETEK         CLOUDY    19  17  88 CALM      29.92F
LADYSMITH      LGT SNOW  21  18  90 SE5       29.96F WCI  14
EAU CLAIRE     CLOUDY    22  14  71 SE6       29.94F WCI  14
MENOMONIE      CLOUDY    22  16  78 SE7       29.94F WCI  13
NEW RICHMOND   CLOUDY    22  11  62 SE7       29.90F WCI  13
OSCEOLA        CLOUDY    21  13  72 E7        29.93F WCI  13
$$

WIZ003>005-009-010-017-018-031000-
NORTH CENTRAL WISCONSIN

CITY           SKY/WX    TMP DP  RH WIND       PRES   REMARKS
MANITOWISH WTR FLURRIES  17  11  77 S6        29.92F WCI   9
ARBOR VITAE    FLURRIES  20  11  68 S10       29.93F WCI   9
WOODRUFF       FLURRIES  20  11  68 S10       29.93F WCI   9
RHINELANDER    CLOUDY    20   8  60 S8        29.94  WCI  10
EAGLE RIVER    FLURRIES  20   7  56 S3        29.93F
LAND O LAKES   FLURRIES  19  10  70 S5        29.93F WCI  12
PHILLIPS       LGT SNOW  19  14  82 S7        29.93F WCI   9
TOMAHAWK       LGT SNOW  19  14  81 CALM      29.96F
MEDFORD        CLOUDY    19  16  89 SE7       29.94F WCI   9
MERRILL        FLURRIES  20  17  88 S5        29.97F WCI  14
$$

WIZ029-030-035-036-043>047-031000-
CENTRAL WISCONSIN

CITY           SKY/WX    TMP DP  RH WIND       PRES   REMARKS
WAUSAU         CLOUDY    20  16  84 SE6       29.98F WCI  12
MOSINEE        CLOUDY    21  19  93 SE6       29.99F WCI  14
MARSHFIELD     CLOUDY    21  14  74 SE8       29.96F WCI  11
STEVENS POINT  CLOUDY    19  14  79 SE5       30.00F WCI  13
WAUPACA        CLOUDY    24  18  75 SE6       30.05F WCI  17
WAUTOMA        CLOUDY    23  16  75 E5        30.03F WCI  17
WISC RAPIDS    CLOUDY    22  12  65 SE6       30.01F WCI  14
CAMP DOUGLAS   CLOUDY    23  18  80 SE9       29.99F WCI  13
$$

WIZ011>013-019>022-031-037>040-048>050-031000-
NORTHEAST WISCONSIN

CITY           SKY/WX    TMP DP  RH WIND       PRES   REMARKS
ANTIGO         LGT SNOW  18  16  90 S9        29.97F WCI   7
SHAWANO        LGT SNOW  24  20  87 CALM      30.06F VSB 1
OCONTO         CLOUDY    22  21  96 S5        30.08F WCI  16
STURGEON BAY   CLOUDY    21  18  86 S9        30.11F VSB 1   WCI  11
GREEN BAY      CLOUDY    22  21  96 S6        30.08F WCI  14
MANITOWOC      CLOUDY    23  22  96 S6        30.10F WCI  16
APPLETON       CLOUDY    23  19  86 SE7       30.06F WCI  15
CLINTONVILLE   CLOUDY    23  19  86 SE5       30.05F WCI  17
OSHKOSH        CLOUDY    24  15  68 SE6       30.06F WCI  17
$$

WIZ032>034-041-042-053>061-031000-
SOUTHWEST WISCONSIN

CITY           SKY/WX    TMP DP  RH WIND       PRES   REMARKS
LA CROSSE      CLOUDY    26  16  65 SE9       29.98F WCI  17
SPARTA         CLOUDY    24  16  70 SE6       29.99F WCI  17
VIROQUA        CLOUDY    22  17  79 SE9       29.94F WCI  12
BOSCOBEL       CLOUDY    26  17  68 CALM      30.00F
PRAIRIE DU CHI CLOUDY    25  17  71 E6        29.99F WCI  18
PLATTEVILLE    CLOUDY    25  19  78 SE10      29.98F WCI  15
$$

WIZ056-057-062-063-064-067-068-031000-
SOUTH CENTRAL WISCONSIN

CITY           SKY/WX    TMP DP  RH WIND       PRES   REMARKS
REEDSBURG      CLOUDY    23  17  77 SE5       29.99F WCI  17
BARABOO/DELLS  CLOUDY    23  16  75 SE7       30.00F WCI  15
LONE ROCK      CLOUDY    24  18  77 E8        30.01F WCI  15
MINERAL POINT  CLOUDY    27  19  74 SE8       29.98F WCI  18
MADISON        CLOUDY    25  14  63 SE9       30.03F WCI  15
MIDDLETON      CLOUDY    26  15  63 SE8       30.01F WCI  18
WATERTOWN      CLOUDY    24  15  69 SE6       30.06S WCI  17
MONROE         CLOUDY    25  19  80 SE12G20   29.98F WCI  14
JANESVILLE     CLOUDY    27  18  69 SE8       30.07F WCI  18
$$

WIZ051-052-058>065-066-070>072-031000-
SOUTHEAST WISCONSIN

CITY           SKY/WX    TMP DP  RH WIND       PRES   REMARKS
MILWAUKEE      CLOUDY    27  16  63 S7        30.08F WCI  19
WAUKESHA       CLOUDY    23  16  74 SE9       30.07F WCI  13
MILWAUKEE/TIMM CLOUDY    27  16  63 SE6       30.08F WCI  20
RACINE         CLOUDY    28  17  63 S13       30.11F WCI  17
BURLINGTON     CLOUDY    24  15  68 SE7       30.06F WCI  16
KENOSHA        CLOUDY    27  17  66 SE9       30.08F WCI  18
FOND DU LAC    CLOUDY    24  15  68 SE8       30.06F WCI  15
SHEBOYGAN      CLOUDY    24  17  74 S5        30.09F WCI  18
WEST BEND      CLOUDY    25  14  63 SE3       30.06F
JUNEAU         CLOUDY    24  15  70 SE8       30.06F WCI  14
$$

LSZ147-162-031000-
LAKE SUPERIOR

STATION/POSITION TIME  TEMP    WIND        PRES    WAVE
                       AIR SEA DIR/SP/G            HT/PER
                 (UTC) (F)     (DEG/KT/KT) (MB)    (FT/S)
DEVILS ISLAND    0900   22     180/  5/  7 1013.3F
PORT WING        0800   24     180/ 10/ 16 1013.9
SAXON HARBOR     0820   24     190/  9/ 16 1014.2F
$$

LMZ867-665-643>646-031000-
LAKE MICHIGAN

STATION/POSITION TIME  TEMP    WIND        PRES    WAVE
                       AIR SEA DIR/SP/G            HT/PER
                 (UTC) (F)     (DEG/KT/KT) (MB)    (FT/S)
NORTHPORT PIER   0803   24     200/  3/  7 1020.3F
SISTER BAY       0813   24     200/ 12/ 14   N/A
KEWAUNEE LAKESHO 0800   25     200/ 10/ 14 1020.3
SHEBOYGAN LAKESH 0900   28     170/ 14/ 16 1020.0F
PORT WASHINGTON  0800   27     190/  7/ 16 1022.0F
MILWAUKEE LAKESH 0815   27     180/  7/  9   N/A
KENOSHA   LAKESH 0900   28     160/ 17/ 20 1018.6F
$$

TC  - TEMPERATURE IN CELSIUS
VSB - VISIBILITY IN STATUTE MILES
WCI - WIND CHILL INDEX
HX  - HEAT INDEX



USA.gov is the U.S. government's official web portal to all federal, state and local government web resources and services.